Year,Month,Day,Hour,Minute,Value (Times are PST for temperature in C)
2016,04,19,12,26,19.10
2016,04,19,12,27,19.10
2016,04,19,12,28,19.10
2016,04,19,12,29,19.10
2016,04,19,12,30,19.10
2016,04,19,12,31,19.10
2016,04,19,12,32,19.20
2016,04,19,12,33,19.20
2016,04,19,12,34,19.20
2016,04,19,12,35,19.20
2016,04,19,12,36,19.20
2016,04,19,12,37,19.20
2016,04,19,12,38,19.20
2016,04,19,12,39,19.20
2016,04,19,12,40,19.20
2016,04,19,12,41,19.30
2016,04,19,12,42,19.20
2016,04,19,12,43,19.20
2016,04,19,12,44,19.20
2016,04,19,12,45,19.20
2016,04,19,12,46,19.20
2016,04,19,12,47,19.20
2016,04,19,12,48,19.20
2016,04,19,12,49,19.20
2016,04,19,12,50,19.20
2016,04,19,12,51,19.20
2016,04,19,12,52,19.20
2016,04,19,12,53,19.20
2016,04,19,12,54,19.20
2016,04,19,12,55,19.20
2016,04,19,12,56,19.20
2016,04,19,12,57,19.20
2016,04,19,12,58,19.30
2016,04,19,12,59,19.30
2016,04,19,13,00,19.30
2016,04,19,13,01,19.30
2016,04,19,13,02,19.30
2016,04,19,13,03,19.30
2016,04,19,13,04,19.20
2016,04,19,13,05,19.20
2016,04,19,13,06,19.20
2016,04,19,13,07,19.30
2016,04,19,13,08,19.30
2016,04,19,13,09,19.30
2016,04,19,13,10,19.30
2016,04,19,13,11,19.30
2016,04,19,13,12,19.30
2016,04,19,13,13,19.30
2016,04,19,13,14,19.30
2016,04,19,13,15,19.40
2016,04,19,13,16,19.40
2016,04,19,13,17,19.40
2016,04,19,13,18,19.40
2016,04,19,13,19,19.40
2016,04,19,13,20,19.40
2016,04,19,13,21,19.40
2016,04,19,13,22,19.40
2016,04,19,13,23,19.40
2016,04,19,13,24,19.40
2016,04,19,13,25,19.40
2016,04,19,13,26,19.40
2016,04,19,13,27,19.40
2016,04,19,13,28,19.40
2016,04,19,13,29,19.40
2016,04,19,13,30,19.40
2016,04,19,13,31,19.50
2016,04,19,13,32,19.50
2016,04,19,13,33,19.50
2016,04,19,13,34,19.60
2016,04,19,13,35,19.60
2016,04,19,13,36,19.60
2016,04,19,13,37,19.60
2016,04,19,13,38,19.60
2016,04,19,13,39,19.70
2016,04,19,13,40,19.70
2016,04,19,13,41,19.70
2016,04,19,13,42,19.70
2016,04,19,13,43,19.70
2016,04,19,13,44,19.70
2016,04,19,13,45,19.70
2016,04,19,13,46,19.80
2016,04,19,13,47,19.70
2016,04,19,13,48,19.70
2016,04,19,13,49,19.70
2016,04,19,13,50,19.70
2016,04,19,13,51,19.70
2016,04,19,13,52,19.70
2016,04,19,13,53,19.70
2016,04,19,13,54,19.70
2016,04,19,13,55,19.70
2016,04,19,13,56,19.70
2016,04,19,13,57,19.70
2016,04,19,13,58,19.70
2016,04,19,13,59,19.70
2016,04,19,14,00,19.80
2016,04,19,14,01,19.80
2016,04,19,14,02,19.80
2016,04,19,14,03,19.80
2016,04,19,14,04,19.80
2016,04,19,14,05,19.80
2016,04,19,14,06,19.80
2016,04,19,14,07,19.80
2016,04,19,14,08,19.80
2016,04,19,14,09,19.80
2016,04,19,14,10,19.80
2016,04,19,14,11,19.80
2016,04,19,14,12,19.80
2016,04,19,14,13,19.80
2016,04,19,14,14,19.80
2016,04,19,14,15,19.90
2016,04,19,14,16,19.90
2016,04,19,14,17,19.90
2016,04,19,14,18,19.90
2016,04,19,14,19,19.90
2016,04,19,14,20,19.90
2016,04,19,14,21,20.00
2016,04,19,14,22,20.00
2016,04,19,14,23,20.00
2016,04,19,14,24,20.00
2016,04,19,14,25,20.10
2016,04,19,14,26,20.10
2016,04,19,14,27,20.10
2016,04,19,14,28,20.10
2016,04,19,14,29,20.10
2016,04,19,14,30,20.10
2016,04,19,14,31,20.10
2016,04,19,14,32,20.10
2016,04,19,14,33,20.10
2016,04,19,14,34,20.10
2016,04,19,14,35,20.20
2016,04,19,14,36,20.20
2016,04,19,14,37,20.20
2016,04,19,14,38,20.30
2016,04,19,14,39,20.30
2016,04,19,14,40,20.30
2016,04,19,14,41,20.30
2016,04,19,14,42,20.40
2016,04,19,14,43,20.40
2016,04,19,14,44,20.40
2016,04,19,14,45,20.40
2016,04,19,14,46,20.40
2016,04,19,14,47,20.40
2016,04,19,14,48,20.40
2016,04,19,14,49,20.40
2016,04,19,14,50,20.40
2016,04,19,14,51,20.40
2016,04,19,14,52,20.40
2016,04,19,14,53,20.40
2016,04,19,14,54,20.40
2016,04,19,14,55,20.50
2016,04,19,14,56,20.50
2016,04,19,14,57,20.50
2016,04,19,14,58,20.50
2016,04,19,14,59,20.60
2016,04,19,15,00,20.60
2016,04,19,15,01,20.60
2016,04,19,15,02,20.70
2016,04,19,15,03,20.70
2016,04,19,15,04,20.80
2016,04,19,15,05,20.80
2016,04,19,15,06,20.80
2016,04,19,15,07,20.90
2016,04,19,15,08,20.90
2016,04,19,15,09,20.90
2016,04,19,15,10,21.00
2016,04,19,15,11,21.00
2016,04,19,15,12,21.10
2016,04,19,15,13,21.10
2016,04,19,15,14,21.10
2016,04,19,15,15,21.10
2016,04,19,15,16,21.10
2016,04,19,15,17,21.10
2016,04,19,15,18,21.10
2016,04,19,15,19,21.00
2016,04,19,15,20,21.00
2016,04,19,15,21,21.00
2016,04,19,15,22,21.10
2016,04,19,15,23,21.10
2016,04,19,15,24,21.10
2016,04,19,15,25,21.10
2016,04,19,15,26,21.10
2016,04,19,15,27,21.20
2016,04,19,15,28,21.20
2016,04,19,15,29,21.20
2016,04,19,15,30,21.30
2016,04,19,15,31,21.30
2016,04,19,15,32,21.30
2016,04,19,15,33,21.40
2016,04,19,15,34,21.40
2016,04,19,15,35,21.40
2016,04,19,15,36,21.40
2016,04,19,15,37,21.40
2016,04,19,15,38,21.40
2016,04,19,15,39,21.40
2016,04,19,15,40,21.40
2016,04,19,15,41,21.40
2016,04,19,15,42,21.40
2016,04,19,15,43,21.50
2016,04,19,15,44,21.50
2016,04,19,15,45,21.50
2016,04,19,15,46,21.50
2016,04,19,15,47,21.50
2016,04,19,15,48,21.50
2016,04,19,15,49,21.50
2016,04,19,15,50,21.50
2016,04,19,15,51,21.50
2016,04,19,15,52,21.40
2016,04,19,15,53,21.40
2016,04,19,15,54,21.40
2016,04,19,15,55,21.40
2016,04,19,15,56,21.40
2016,04,19,15,57,21.40
2016,04,19,15,58,21.40
2016,04,19,15,59,21.40
2016,04,19,16,00,21.40
2016,04,19,16,01,21.50
2016,04,19,16,02,21.50
2016,04,19,16,03,21.50
2016,04,19,16,04,21.60
2016,04,19,16,05,21.60
2016,04,19,16,06,21.60
2016,04,19,16,07,21.60
2016,04,19,16,08,21.60
2016,04,19,16,09,21.60
2016,04,19,16,10,21.70
2016,04,19,16,11,21.70
2016,04,19,16,12,21.70
2016,04,19,16,13,21.80
2016,04,19,16,14,21.80
2016,04,19,16,15,21.80
2016,04,19,16,16,21.90
2016,04,19,16,17,21.90
2016,04,19,16,18,22.00
2016,04,19,16,19,22.10
2016,04,19,16,20,22.10
2016,04,19,16,21,22.10
2016,04,19,16,22,22.10
2016,04,19,16,23,22.20
2016,04,19,16,24,22.20
2016,04,19,16,25,22.20
2016,04,19,16,26,22.20
2016,04,19,16,27,22.20
2016,04,19,16,28,22.30
2016,04,19,16,29,22.30
2016,04,19,16,30,22.30
2016,04,19,16,31,22.30
2016,04,19,16,32,22.40
2016,04,19,16,33,22.30
2016,04,19,16,34,22.30
2016,04,19,16,35,22.30
2016,04,19,16,36,22.30
2016,04,19,16,37,22.30
2016,04,19,16,38,22.30
2016,04,19,16,39,22.30
2016,04,19,16,40,22.30
2016,04,19,16,41,22.30
2016,04,19,16,42,22.30
2016,04,19,16,43,22.30
2016,04,19,16,44,22.30
2016,04,19,16,45,22.30
2016,04,19,16,46,22.30
2016,04,19,16,47,22.30
2016,04,19,16,48,22.30
2016,04,19,16,49,22.30
2016,04,19,16,50,22.30
2016,04,19,16,51,22.40
2016,04,19,16,52,22.40
2016,04,19,16,53,22.40
2016,04,19,16,54,22.40
2016,04,19,16,55,22.40
2016,04,19,16,56,22.40
2016,04,19,16,57,22.40
2016,04,19,16,58,22.40
2016,04,19,16,59,22.40
2016,04,19,17,00,22.40
2016,04,19,17,01,22.40
2016,04,19,17,02,22.40
2016,04,19,17,03,22.50
2016,04,19,17,04,22.50
2016,04,19,17,05,22.60
2016,04,19,17,06,22.60
2016,04,19,17,07,22.60
2016,04,19,17,08,22.60
2016,04,19,17,09,22.60
2016,04,19,17,10,22.60
2016,04,19,17,11,22.50
2016,04,19,17,12,22.50
2016,04,19,17,13,22.40
2016,04,19,17,14,22.40
2016,04,19,17,15,22.30
2016,04,19,17,16,22.30
2016,04,19,17,17,22.30
2016,04,19,17,18,22.20
2016,04,19,17,19,22.20
2016,04,19,17,20,22.10
2016,04,19,17,21,22.10
2016,04,19,17,22,22.00
2016,04,19,17,23,21.90
2016,04,19,17,24,21.80
2016,04,19,17,25,21.70
2016,04,19,17,26,21.60
2016,04,19,17,27,21.60
2016,04,19,17,28,21.50
2016,04,19,17,29,21.40
2016,04,19,17,30,21.40
2016,04,19,17,31,21.40
2016,04,19,17,32,21.30
2016,04,19,17,33,21.30
2016,04,19,17,34,21.30
2016,04,19,17,35,21.30
2016,04,19,17,36,21.30
2016,04,19,17,37,21.20
2016,04,19,17,38,21.20
2016,04,19,17,39,21.20
2016,04,19,17,40,21.20
2016,04,19,17,41,21.10
2016,04,19,17,42,21.10
2016,04,19,17,43,21.10
2016,04,19,17,44,21.00
2016,04,19,17,45,21.00
2016,04,19,17,46,20.90
2016,04,19,17,47,20.90
2016,04,19,17,48,20.90
2016,04,19,17,49,20.90
2016,04,19,17,50,20.80
2016,04,19,17,51,20.80
2016,04,19,17,52,20.80
2016,04,19,17,53,20.80
2016,04,19,17,54,20.80
2016,04,19,17,55,20.80
2016,04,19,17,56,20.80
2016,04,19,17,57,20.70
2016,04,19,17,58,20.70
2016,04,19,17,59,20.70
2016,04,19,18,00,20.60
2016,04,19,18,01,20.60
2016,04,19,18,02,20.60
2016,04,19,18,03,20.60
2016,04,19,18,04,20.60
2016,04,19,18,05,20.50
2016,04,19,18,06,20.50
2016,04,19,18,07,20.50
2016,04,19,18,08,20.50
2016,04,19,18,09,20.50
2016,04,19,18,10,20.50
2016,04,19,18,11,20.40
2016,04,19,18,12,20.40
2016,04,19,18,13,20.40
2016,04,19,18,14,20.30
2016,04,19,18,15,20.30
2016,04,19,18,16,20.30
2016,04,19,18,17,20.20
2016,04,19,18,18,20.20
2016,04,19,18,19,20.20
2016,04,19,18,20,20.10
2016,04,19,18,21,20.10
2016,04,19,18,22,20.00
2016,04,19,18,23,20.00
2016,04,19,18,24,19.90
2016,04,19,18,25,19.80
2016,04,19,18,26,19.80
2016,04,19,18,27,19.80
2016,04,19,18,28,19.80
2016,04,19,18,29,19.70
2016,04,19,18,30,19.70
2016,04,19,18,31,19.70
2016,04,19,18,32,19.70
2016,04,19,18,33,19.70
2016,04,19,18,34,19.70
2016,04,19,18,35,19.70
2016,04,19,18,36,19.60
2016,04,19,18,37,19.60
2016,04,19,18,38,19.60
2016,04,19,18,39,19.60
2016,04,19,18,40,19.70
2016,04,19,18,41,19.70
2016,04,19,18,42,19.70
2016,04,19,18,43,19.70
2016,04,19,18,44,19.70
2016,04,19,18,45,19.70
2016,04,19,18,46,19.70
2016,04,19,18,47,19.80
2016,04,19,18,48,19.80
2016,04,19,18,49,19.80
2016,04,19,18,50,19.90
2016,04,19,18,51,19.90
2016,04,19,18,52,19.90
2016,04,19,18,53,20.00
2016,04,19,18,54,20.00
2016,04,19,18,55,20.00
2016,04,19,18,56,20.00
2016,04,19,18,57,20.10
2016,04,19,18,58,20.10
2016,04,19,18,59,20.10
2016,04,19,19,00,20.10
2016,04,19,19,01,20.10
2016,04,19,19,02,20.10
2016,04,19,19,03,20.10
2016,04,19,19,04,20.10
2016,04,19,19,05,20.10
2016,04,19,19,06,20.10
2016,04,19,19,07,20.10
2016,04,19,19,08,20.10
2016,04,19,19,09,20.00
2016,04,19,19,10,20.00
2016,04,19,19,11,19.90
2016,04,19,19,12,19.90
2016,04,19,19,13,19.90
2016,04,19,19,14,19.90
2016,04,19,19,15,19.90
2016,04,19,19,16,19.90
2016,04,19,19,17,19.90
2016,04,19,19,18,20.00
2016,04,19,19,19,20.00
2016,04,19,19,20,20.10
2016,04,19,19,21,20.10
2016,04,19,19,22,20.10
2016,04,19,19,23,20.20
2016,04,19,19,24,20.20
2016,04,19,19,25,20.20
2016,04,19,19,26,20.20
2016,04,19,19,27,20.20
2016,04,19,19,28,20.10
2016,04,19,19,29,20.10
2016,04,19,19,30,20.00
2016,04,19,19,31,19.90
2016,04,19,19,32,19.90
2016,04,19,19,33,19.90
2016,04,19,19,34,19.90
2016,04,19,19,35,19.90
2016,04,19,19,36,19.90
2016,04,19,19,37,19.80
2016,04,19,19,38,19.80
2016,04,19,19,39,19.80
2016,04,19,19,40,19.80
2016,04,19,19,41,19.80
2016,04,19,19,42,19.80
2016,04,19,19,43,19.80
2016,04,19,19,44,19.70
2016,04,19,19,45,19.70
2016,04,19,19,46,19.60
2016,04,19,19,47,19.60
2016,04,19,19,48,19.60
2016,04,19,19,49,19.60
2016,04,19,19,50,19.50
2016,04,19,19,51,19.50
2016,04,19,19,52,19.50
2016,04,19,19,53,19.50
2016,04,19,19,54,19.40
2016,04,19,19,55,19.40
2016,04,19,19,56,19.40
2016,04,19,19,57,19.40
2016,04,19,19,58,19.40
2016,04,19,19,59,19.30
2016,04,19,20,00,19.30
2016,04,19,20,01,19.30
2016,04,19,20,02,19.30
2016,04,19,20,03,19.20
2016,04,19,20,04,19.20
2016,04,19,20,05,19.20
2016,04,19,20,06,19.10
2016,04,19,20,07,19.00
2016,04,19,20,08,18.90
2016,04,19,20,09,18.60
2016,04,19,20,10,18.40
2016,04,19,20,11,18.10
2016,04,19,20,12,17.80
2016,04,19,20,13,17.60
2016,04,19,20,14,17.40
2016,04,19,20,15,17.20
2016,04,19,20,16,17.00
2016,04,19,20,17,16.90
2016,04,19,20,18,16.80
2016,04,19,20,19,16.70
2016,04,19,20,20,16.60
2016,04,19,20,21,16.50
2016,04,19,20,22,16.50
2016,04,19,20,23,16.40
2016,04,19,20,24,16.40
2016,04,19,20,25,16.40
2016,04,19,20,26,16.40
2016,04,19,20,27,16.40
2016,04,19,20,28,16.30
2016,04,19,20,29,16.30
2016,04,19,20,30,16.30
2016,04,19,20,31,16.30
2016,04,19,20,32,16.30
2016,04,19,20,33,16.30
2016,04,19,20,34,16.30
2016,04,19,20,35,16.30
2016,04,19,20,36,16.30
2016,04,19,20,37,16.30
2016,04,19,20,38,16.30
2016,04,19,20,39,16.30
2016,04,19,20,40,16.30
2016,04,19,20,41,16.20
2016,04,19,20,42,16.20
2016,04,19,20,43,16.20
2016,04,19,20,44,16.20
2016,04,19,20,45,16.20
2016,04,19,20,46,16.10
2016,04,19,20,47,16.10
2016,04,19,20,48,16.10
2016,04,19,20,49,16.10
2016,04,19,20,50,16.10
2016,04,19,20,51,16.10
2016,04,19,20,52,16.00
2016,04,19,20,53,16.00
2016,04,19,20,54,16.00
2016,04,19,20,55,16.00
2016,04,19,20,56,16.00
2016,04,19,20,57,16.00
2016,04,19,20,58,16.00
2016,04,19,20,59,15.90
2016,04,19,21,00,15.90
2016,04,19,21,01,15.90
2016,04,19,21,02,15.90
2016,04,19,21,03,15.90
2016,04,19,21,04,15.90
2016,04,19,21,05,15.90
2016,04,19,21,06,15.90
2016,04,19,21,07,15.80
2016,04,19,21,08,15.80
2016,04,19,21,09,15.80
2016,04,19,21,10,15.80
2016,04,19,21,11,15.80
2016,04,19,21,12,15.80
2016,04,19,21,13,15.70
2016,04,19,21,14,15.70
2016,04,19,21,15,15.70
2016,04,19,21,16,15.70
2016,04,19,21,17,15.60
2016,04,19,21,18,15.60
2016,04,19,21,19,15.60
2016,04,19,21,20,15.60
2016,04,19,21,21,15.60
2016,04,19,21,22,15.60
2016,04,19,21,23,15.60
2016,04,19,21,24,15.60
2016,04,19,21,25,15.60
2016,04,19,21,26,15.60
2016,04,19,21,27,15.60
2016,04,19,21,28,15.60
2016,04,19,21,29,15.60
2016,04,19,21,30,15.60
2016,04,19,21,31,15.60
2016,04,19,21,32,15.60
2016,04,19,21,33,15.50
2016,04,19,21,34,15.50
2016,04,19,21,35,15.50
2016,04,19,21,36,15.40
2016,04,19,21,37,15.40
2016,04,19,21,38,15.40
2016,04,19,21,39,15.40
2016,04,19,21,40,15.40
2016,04,19,21,41,15.30
2016,04,19,21,42,15.30
2016,04,19,21,43,15.30
2016,04,19,21,44,15.30
2016,04,19,21,45,15.30
2016,04,19,21,46,15.30
2016,04,19,21,47,15.30
2016,04,19,21,48,15.30
2016,04,19,21,49,15.20
2016,04,19,21,50,15.20
2016,04,19,21,51,15.20
2016,04,19,21,52,15.20
2016,04,19,21,53,15.20
2016,04,19,21,54,15.20
2016,04,19,21,55,15.20
2016,04,19,21,56,15.20
2016,04,19,21,57,15.20
2016,04,19,21,58,15.20
2016,04,19,21,59,15.10
2016,04,19,22,00,15.10
2016,04,19,22,01,15.10
2016,04,19,22,02,15.10
2016,04,19,22,03,15.10
2016,04,19,22,04,15.10
2016,04,19,22,05,15.10
2016,04,19,22,06,15.10
2016,04,19,22,07,15.00
2016,04,19,22,08,15.00
2016,04,19,22,09,15.00
2016,04,19,22,10,15.00
2016,04,19,22,11,15.00
2016,04,19,22,12,14.90
2016,04,19,22,13,14.90
2016,04,19,22,14,14.90
2016,04,19,22,15,14.90
2016,04,19,22,16,14.80
2016,04,19,22,17,14.80
2016,04,19,22,18,14.70
2016,04,19,22,19,14.70
2016,04,19,22,20,14.60
2016,04,19,22,21,14.60
2016,04,19,22,22,14.60
2016,04,19,22,23,14.50
2016,04,19,22,24,14.50
2016,04,19,22,25,14.50
2016,04,19,22,26,14.40
2016,04,19,22,27,14.40
2016,04,19,22,28,14.40
2016,04,19,22,29,14.40
2016,04,19,22,30,14.30
2016,04,19,22,31,14.30
2016,04,19,22,32,14.30
2016,04,19,22,33,14.30
2016,04,19,22,34,14.30
2016,04,19,22,35,14.30
2016,04,19,22,36,14.30
2016,04,19,22,37,14.30
2016,04,19,22,38,14.20
2016,04,19,22,39,14.20
2016,04,19,22,40,14.20
2016,04,19,22,41,14.20
2016,04,19,22,42,14.20
2016,04,19,22,43,14.20
2016,04,19,22,44,14.10
2016,04,19,22,45,14.10
2016,04,19,22,46,14.10
2016,04,19,22,47,14.10
2016,04,19,22,48,14.10
2016,04,19,22,49,14.00
2016,04,19,22,50,14.00
2016,04,19,22,51,14.00
2016,04,19,22,52,14.00
2016,04,19,22,53,13.90
2016,04,19,22,54,13.90
2016,04,19,22,55,13.90
2016,04,19,22,56,13.90
2016,04,19,22,57,13.90
2016,04,19,22,58,13.90
2016,04,19,22,59,13.90
2016,04,19,23,00,13.90
2016,04,19,23,01,13.80
2016,04,19,23,02,13.80
2016,04,19,23,03,13.80
2016,04,19,23,04,13.80
2016,04,19,23,05,13.80
2016,04,19,23,06,13.80
2016,04,19,23,07,13.80
2016,04,19,23,08,13.80
2016,04,19,23,09,13.80
2016,04,19,23,10,13.80
2016,04,19,23,11,13.90
2016,04,19,23,12,13.90
2016,04,19,23,13,13.90
2016,04,19,23,14,14.00
2016,04,19,23,15,14.00
2016,04,19,23,16,14.10
2016,04,19,23,17,14.10
2016,04,19,23,18,14.10
2016,04,19,23,19,14.10
2016,04,19,23,20,14.10
2016,04,19,23,21,14.20
2016,04,19,23,22,14.10
2016,04,19,23,23,14.20
2016,04,19,23,24,14.20
2016,04,19,23,25,14.20
2016,04,19,23,26,14.20
2016,04,19,23,27,14.20
2016,04,19,23,28,14.20
2016,04,19,23,29,14.20
2016,04,19,23,30,14.20
2016,04,19,23,31,14.10
2016,04,19,23,32,14.10
2016,04,19,23,33,14.10
2016,04,19,23,34,14.10
2016,04,19,23,35,14.00
2016,04,19,23,36,14.00
2016,04,19,23,37,13.90
2016,04,19,23,38,13.90
2016,04,19,23,39,13.90
2016,04,19,23,40,13.80
2016,04,19,23,41,13.80
2016,04,19,23,42,13.80
2016,04,19,23,43,13.80
2016,04,19,23,44,13.80
2016,04,19,23,45,13.80
2016,04,19,23,46,13.80
2016,04,19,23,47,13.80
2016,04,19,23,48,13.80
2016,04,19,23,49,13.80
2016,04,19,23,50,13.80
2016,04,19,23,51,13.80
2016,04,19,23,52,13.80
2016,04,19,23,53,13.80
2016,04,19,23,54,13.80
2016,04,19,23,55,13.80
2016,04,19,23,56,13.80
2016,04,19,23,57,13.80
2016,04,19,23,58,13.80
2016,04,19,23,59,13.80
